Time,TemperatureF,DewpointF,PressureIn,WindDirection,WindDirectionDegrees,WindSpeedMPH,WindSpeedGustMPH,Humidity,HourlyPrecipIn,Conditions,Clouds,dailyrainin,SoftwareType,DateUTC
2013-02-19 00:03:00,60.0,-99.9,30.04,North,-999,-999.0,-999.0,-999,-99.99,,,-99.99,,2013-02-19 06:03:00,
2013-02-19 00:12:00,59.0,-99.9,30.03,North,-999,-999.0,-999.0,-999,-99.99,,,-99.99,,2013-02-19 06:12:00,
2013-02-19 00:22:00,60.0,-99.9,30.03,North,-999,-999.0,-999.0,-999,-99.99,,,-99.99,,2013-02-19 06:22:00,
2013-02-19 00:33:00,60.0,-99.9,30.03,North,-999,-999.0,-999.0,-999,-99.99,,,-99.99,,2013-02-19 06:33:00,
2013-02-19 00:42:00,60.0,-99.9,30.02,North,-999,-999.0,-999.0,-999,-99.99,,,-99.99,,2013-02-19 06:42:00,
2013-02-19 00:53:00,60.0,-99.9,30.02,North,-999,-999.0,-999.0,-999,-99.99,,,-99.99,,2013-02-19 06:53:00,
2013-02-19 01:02:00,60.0,-99.9,30.01,North,-999,-999.0,-999.0,-999,-99.99,,,-99.99,,2013-02-19 07:02:00,
2013-02-19 01:12:00,60.0,-99.9,30.01,North,-999,-999.0,-999.0,-999,-99.99,,,-99.99,,2013-02-19 07:12:00,
2013-02-19 01:22:00,60.0,-99.9,30.01,North,-999,-999.0,-999.0,-999,-99.99,,,-99.99,,2013-02-19 07:22:00,
2013-02-19 01:32:00,60.0,-99.9,30.00,North,-999,-999.0,-999.0,-999,-99.99,,,-99.99,,2013-02-19 07:32:00,
2013-02-19 01:42:00,60.0,-99.9,29.99,North,-999,-999.0,-999.0,-999,-99.99,,,-99.99,,2013-02-19 07:42:00,
2013-02-19 01:52:00,60.0,-99.9,29.98,North,-999,-999.0,-999.0,-999,-99.99,,,-99.99,,2013-02-19 07:52:00,
2013-02-19 02:02:00,60.0,-99.9,29.98,North,-999,-999.0,-999.0,-999,-99.99,,,-99.99,,2013-02-19 08:02:00,
2013-02-19 02:12:00,60.0,-99.9,29.99,North,-999,-999.0,-999.0,-999,-99.99,,,-99.99,,2013-02-19 08:12:00,
2013-02-19 02:22:00,60.0,-99.9,29.98,North,-999,-999.0,-999.0,-999,-99.99,,,-99.99,,2013-02-19 08:22:00,
2013-02-19 02:32:00,60.0,-99.9,29.97,North,-999,-999.0,-999.0,-999,-99.99,,,-99.99,,2013-02-19 08:32:00,
2013-02-19 02:42:00,61.0,-99.9,29.96,North,-999,-999.0,-999.0,-999,-99.99,,,-99.99,,2013-02-19 08:42:00,
2013-02-19 02:52:00,61.0,-99.9,29.97,North,-999,-999.0,-999.0,-999,-99.99,,,-99.99,,2013-02-19 08:52:00,
2013-02-19 03:02:00,60.0,-99.9,29.97,North,-999,-999.0,-999.0,-999,-99.99,,,-99.99,,2013-02-19 09:02:00,
2013-02-19 03:11:00,60.0,-99.9,29.96,North,-999,-999.0,-999.0,-999,-99.99,,,-99.99,,2013-02-19 09:11:00,
2013-02-19 03:22:00,60.0,-99.9,29.98,North,-999,-999.0,-999.0,-999,-99.99,,,-99.99,,2013-02-19 09:22:00,
2013-02-19 03:32:00,61.0,-99.9,29.98,North,-999,-999.0,-999.0,-999,-99.99,,,-99.99,,2013-02-19 09:32:00,
2013-02-19 03:42:00,61.0,-99.9,29.97,North,-999,-999.0,-999.0,-999,-99.99,,,-99.99,,2013-02-19 09:42:00,
2013-02-19 03:53:00,62.0,-99.9,29.97,North,-999,-999.0,-999.0,-999,-99.99,,,-99.99,,2013-02-19 09:53:00,
2013-02-19 04:02:00,63.0,-99.9,29.97,North,-999,-999.0,-999.0,-999,-99.99,,,-99.99,,2013-02-19 10:02:00,
2013-02-19 04:11:00,63.0,-99.9,29.97,North,-999,-999.0,-999.0,-999,-99.99,,,-99.99,,2013-02-19 10:11:00,
2013-02-19 04:22:00,63.0,-99.9,29.97,North,-999,-999.0,-999.0,-999,-99.99,,,-99.99,,2013-02-19 10:22:00,
2013-02-19 04:32:00,64.0,-99.9,29.96,North,-999,-999.0,-999.0,-999,-99.99,,,-99.99,,2013-02-19 10:32:00,
2013-02-19 04:42:00,64.0,-99.9,29.97,North,-999,-999.0,-999.0,-999,-99.99,,,-99.99,,2013-02-19 10:42:00,
2013-02-19 04:52:00,63.0,-99.9,29.96,North,-999,-999.0,-999.0,-999,-99.99,,,-99.99,,2013-02-19 10:52:00,
2013-02-19 05:02:00,64.0,-99.9,29.96,North,-999,-999.0,-999.0,-999,-99.99,,,-99.99,,2013-02-19 11:02:00,
2013-02-19 05:12:00,64.0,-99.9,29.96,North,-999,-999.0,-999.0,-999,-99.99,,,-99.99,,2013-02-19 11:12:00,
2013-02-19 05:22:00,64.0,-99.9,29.98,North,-999,-999.0,-999.0,-999,-99.99,,,-99.99,,2013-02-19 11:22:00,
2013-02-19 05:32:00,64.0,-99.9,29.98,North,-999,-999.0,-999.0,-999,-99.99,,,-99.99,,2013-02-19 11:32:00,
2013-02-19 05:42:00,64.0,-99.9,29.99,North,-999,-999.0,-999.0,-999,-99.99,,,-99.99,,2013-02-19 11:42:00,
2013-02-19 05:52:00,62.0,-99.9,30.00,North,-999,-999.0,-999.0,-999,-99.99,,,-99.99,,2013-02-19 11:52:00,
2013-02-19 06:02:00,62.0,-99.9,30.00,North,-999,-999.0,-999.0,-999,-99.99,,,-99.99,,2013-02-19 12:02:00,
2013-02-19 06:12:00,61.0,-99.9,30.01,North,-999,-999.0,-999.0,-999,-99.99,,,-99.99,,2013-02-19 12:12:00,
2013-02-19 06:22:00,61.0,-99.9,30.01,North,-999,-999.0,-999.0,-999,-99.99,,,-99.99,,2013-02-19 12:22:00,
2013-02-19 06:33:00,61.0,-99.9,30.01,North,-999,-999.0,-999.0,-999,-99.99,,,-99.99,,2013-02-19 12:33:00,
2013-02-19 06:42:00,61.0,-99.9,30.01,North,-999,-999.0,-999.0,-999,-99.99,,,-99.99,,2013-02-19 12:42:00,
2013-02-19 06:53:00,60.0,-99.9,30.02,North,-999,-999.0,-999.0,-999,-99.99,,,-99.99,,2013-02-19 12:53:00,
2013-02-19 07:02:00,60.0,-99.9,30.03,North,-999,-999.0,-999.0,-999,-99.99,,,-99.99,,2013-02-19 13:02:00,
2013-02-19 07:11:00,60.0,-99.9,30.04,North,-999,-999.0,-999.0,-999,-99.99,,,-99.99,,2013-02-19 13:11:00,
2013-02-19 07:22:00,60.0,-99.9,30.04,North,-999,-999.0,-999.0,-999,-99.99,,,-99.99,,2013-02-19 13:22:00,
2013-02-19 07:32:00,60.0,-99.9,30.04,North,-999,-999.0,-999.0,-999,-99.99,,,-99.99,,2013-02-19 13:32:00,
2013-02-19 07:42:00,61.0,-99.9,30.04,North,-999,-999.0,-999.0,-999,-99.99,,,-99.99,,2013-02-19 13:42:00,
2013-02-19 07:52:00,60.0,-99.9,30.05,North,-999,-999.0,-999.0,-999,-99.99,,,-99.99,,2013-02-19 13:52:00,
2013-02-19 08:02:00,60.0,-99.9,30.06,North,-999,-999.0,-999.0,-999,-99.99,,,-99.99,,2013-02-19 14:02:00,
2013-02-19 08:12:00,61.0,-99.9,30.06,North,-999,-999.0,-999.0,-999,-99.99,,,-99.99,,2013-02-19 14:12:00,
2013-02-19 08:22:00,61.0,-99.9,30.07,North,-999,-999.0,-999.0,-999,-99.99,,,-99.99,,2013-02-19 14:22:00,
2013-02-19 08:33:00,61.0,-99.9,30.08,North,-999,-999.0,-999.0,-999,-99.99,,,-99.99,,2013-02-19 14:33:00,
2013-02-19 08:42:00,60.0,-99.9,30.08,North,-999,-999.0,-999.0,-999,-99.99,,,-99.99,,2013-02-19 14:42:00,
2013-02-19 08:52:00,61.0,-99.9,30.09,North,-999,-999.0,-999.0,-999,-99.99,,,-99.99,,2013-02-19 14:52:00,
2013-02-19 09:02:00,61.0,-99.9,30.09,North,-999,-999.0,-999.0,-999,-99.99,,,-99.99,,2013-02-19 15:02:00,
2013-02-19 09:11:00,61.0,-99.9,30.09,North,-999,-999.0,-999.0,-999,-99.99,,,-99.99,,2013-02-19 15:11:00,
2013-02-19 09:22:00,60.0,-99.9,30.10,North,-999,-999.0,-999.0,-999,-99.99,,,-99.99,,2013-02-19 15:22:00,
2013-02-19 09:32:00,60.0,-99.9,30.10,North,-999,-999.0,-999.0,-999,-99.99,,,-99.99,,2013-02-19 15:32:00,
2013-02-19 09:42:00,60.0,-99.9,30.10,North,-999,-999.0,-999.0,-999,-99.99,,,-99.99,,2013-02-19 15:42:00,
2013-02-19 09:52:00,60.0,-99.9,30.11,North,-999,-999.0,-999.0,-999,-99.99,,,-99.99,,2013-02-19 15:52:00,
2013-02-19 10:02:00,61.0,-99.9,30.11,North,-999,-999.0,-999.0,-999,-99.99,,,-99.99,,2013-02-19 16:02:00,
2013-02-19 10:12:00,62.0,-99.9,30.12,North,-999,-999.0,-999.0,-999,-99.99,,,-99.99,,2013-02-19 16:12:00,
2013-02-19 10:22:00,62.0,-99.9,30.11,North,-999,-999.0,-999.0,-999,-99.99,,,-99.99,,2013-02-19 16:22:00,
2013-02-19 10:32:00,63.0,-99.9,30.12,North,-999,-999.0,-999.0,-999,-99.99,,,-99.99,,2013-02-19 16:32:00,
2013-02-19 10:42:00,62.0,-99.9,30.12,North,-999,-999.0,-999.0,-999,-99.99,,,-99.99,,2013-02-19 16:42:00,
2013-02-19 10:52:00,62.0,-99.9,30.13,North,-999,-999.0,-999.0,-999,-99.99,,,-99.99,,2013-02-19 16:52:00,
2013-02-19 11:01:00,62.0,-99.9,30.13,North,-999,-999.0,-999.0,-999,-99.99,,,-99.99,,2013-02-19 17:01:00,
2013-02-19 11:11:00,62.0,-99.9,30.14,North,-999,-999.0,-999.0,-999,-99.99,,,-99.99,,2013-02-19 17:11:00,
2013-02-19 11:21:00,62.0,-99.9,30.14,North,-999,-999.0,-999.0,-999,-99.99,,,-99.99,,2013-02-19 17:21:00,
2013-02-19 11:32:00,65.0,-99.9,30.14,North,-999,-999.0,-999.0,-999,-99.99,,,-99.99,,2013-02-19 17:32:00,
2013-02-19 11:42:00,63.0,-99.9,30.14,North,-999,-999.0,-999.0,-999,-99.99,,,-99.99,,2013-02-19 17:42:00,
2013-02-19 11:52:00,63.0,-99.9,30.13,North,-999,-999.0,-999.0,-999,-99.99,,,-99.99,,2013-02-19 17:52:00,
2013-02-19 12:02:00,65.0,-99.9,30.12,North,-999,-999.0,-999.0,-999,-99.99,,,-99.99,,2013-02-19 18:02:00,
2013-02-19 12:11:00,66.0,-99.9,30.12,North,-999,-999.0,-999.0,-999,-99.99,,,-99.99,,2013-02-19 18:11:00,
2013-02-19 12:22:00,66.0,-99.9,30.12,North,-999,-999.0,-999.0,-999,-99.99,,,-99.99,,2013-02-19 18:22:00,
2013-02-19 12:32:00,65.0,-99.9,30.11,North,-999,-999.0,-999.0,-999,-99.99,,,-99.99,,2013-02-19 18:32:00,
2013-02-19 12:42:00,64.0,-99.9,30.11,North,-999,-999.0,-999.0,-999,-99.99,,,-99.99,,2013-02-19 18:42:00,
2013-02-19 12:52:00,64.0,-99.9,30.11,North,-999,-999.0,-999.0,-999,-99.99,,,-99.99,,2013-02-19 18:52:00,
2013-02-19 13:01:00,66.0,-99.9,30.11,North,-999,-999.0,-999.0,-999,-99.99,,,-99.99,,2013-02-19 19:01:00,
2013-02-19 13:11:00,65.0,-99.9,30.11,North,-999,-999.0,-999.0,-999,-99.99,,,-99.99,,2013-02-19 19:11:00,
2013-02-19 13:22:00,65.0,-99.9,30.11,North,-999,-999.0,-999.0,-999,-99.99,,,-99.99,,2013-02-19 19:22:00,
2013-02-19 13:32:00,66.0,-99.9,30.11,North,-999,-999.0,-999.0,-999,-99.99,,,-99.99,,2013-02-19 19:32:00,
2013-02-19 13:42:00,66.0,-99.9,30.11,North,-999,-999.0,-999.0,-999,-99.99,,,-99.99,,2013-02-19 19:42:00,
2013-02-19 13:52:00,67.0,-99.9,30.11,North,-999,-999.0,-999.0,-999,-99.99,,,-99.99,,2013-02-19 19:52:00,
2013-02-19 14:02:00,67.0,-99.9,30.11,North,-999,-999.0,-999.0,-999,-99.99,,,-99.99,,2013-02-19 20:02:00,
2013-02-19 14:12:00,68.0,-99.9,30.11,North,-999,-999.0,-999.0,-999,-99.99,,,-99.99,,2013-02-19 20:12:00,
2013-02-19 14:22:00,65.0,-99.9,30.11,North,-999,-999.0,-999.0,-999,-99.99,,,-99.99,,2013-02-19 20:22:00,
2013-02-19 14:32:00,65.0,-99.9,30.11,North,-999,-999.0,-999.0,-999,-99.99,,,-99.99,,2013-02-19 20:32:00,
2013-02-19 14:42:00,64.0,-99.9,30.11,North,-999,-999.0,-999.0,-999,-99.99,,,-99.99,,2013-02-19 20:42:00,
2013-02-19 14:52:00,66.0,-99.9,30.11,North,-999,-999.0,-999.0,-999,-99.99,,,-99.99,,2013-02-19 20:52:00,
2013-02-19 15:02:00,64.0,-99.9,30.11,North,-999,-999.0,-999.0,-999,-99.99,,,-99.99,,2013-02-19 21:02:00,
2013-02-19 15:11:00,65.0,-99.9,30.11,North,-999,-999.0,-999.0,-999,-99.99,,,-99.99,,2013-02-19 21:11:00,
2013-02-19 15:22:00,64.0,-99.9,30.11,North,-999,-999.0,-999.0,-999,-99.99,,,-99.99,,2013-02-19 21:22:00,
2013-02-19 15:32:00,64.0,-99.9,30.11,North,-999,-999.0,-999.0,-999,-99.99,,,-99.99,,2013-02-19 21:32:00,
2013-02-19 15:42:00,64.0,-99.9,30.11,North,-999,-999.0,-999.0,-999,-99.99,,,-99.99,,2013-02-19 21:42:00,
2013-02-19 15:52:00,65.0,-99.9,30.11,North,-999,-999.0,-999.0,-999,-99.99,,,-99.99,,2013-02-19 21:52:00,
2013-02-19 16:02:00,65.0,-99.9,30.11,North,-999,-999.0,-999.0,-999,-99.99,,,-99.99,,2013-02-19 22:02:00,
2013-02-19 16:11:00,65.0,-99.9,30.11,North,-999,-999.0,-999.0,-999,-99.99,,,-99.99,,2013-02-19 22:11:00,
2013-02-19 16:22:00,65.0,-99.9,30.11,North,-999,-999.0,-999.0,-999,-99.99,,,-99.99,,2013-02-19 22:22:00,
2013-02-19 18:42:00,61.0,-99.9,30.14,North,-999,-999.0,-999.0,-999,-99.99,,,-99.99,,2013-02-20 00:42:00,
2013-02-19 18:52:00,60.0,-99.9,30.14,North,-999,-999.0,-999.0,-999,-99.99,,,-99.99,,2013-02-20 00:52:00,
2013-02-19 19:02:00,60.0,-99.9,30.14,North,-999,-999.0,-999.0,-999,-99.99,,,-99.99,,2013-02-20 01:02:00,
2013-02-19 19:11:00,59.0,-99.9,30.15,North,-999,-999.0,-999.0,-999,-99.99,,,-99.99,,2013-02-20 01:11:00,
2013-02-19 19:22:00,59.0,-99.9,30.15,North,-999,-999.0,-999.0,-999,-99.99,,,-99.99,,2013-02-20 01:22:00,
2013-02-19 19:32:00,58.0,-99.9,30.16,North,-999,-999.0,-999.0,-999,-99.99,,,-99.99,,2013-02-20 01:32:00,
2013-02-19 19:42:00,58.0,-99.9,30.16,North,-999,-999.0,-999.0,-999,-99.99,,,-99.99,,2013-02-20 01:42:00,
2013-02-19 19:52:00,57.0,-99.9,30.16,North,-999,-999.0,-999.0,-999,-99.99,,,-99.99,,2013-02-20 01:52:00,
2013-02-19 20:02:00,57.0,-99.9,30.16,North,-999,-999.0,-999.0,-999,-99.99,,,-99.99,,2013-02-20 02:02:00,
2013-02-19 20:11:00,57.0,-99.9,30.16,North,-999,-999.0,-999.0,-999,-99.99,,,-99.99,,2013-02-20 02:11:00,
2013-02-19 20:22:00,56.0,-99.9,30.16,North,-999,-999.0,-999.0,-999,-99.99,,,-99.99,,2013-02-20 02:22:00,
2013-02-19 20:32:00,56.0,-99.9,30.16,North,-999,-999.0,-999.0,-999,-99.99,,,-99.99,,2013-02-20 02:32:00,
2013-02-19 20:42:00,55.0,-99.9,30.17,North,-999,-999.0,-999.0,-999,-99.99,,,-99.99,,2013-02-20 02:42:00,
2013-02-19 20:52:00,55.0,-99.9,30.18,North,-999,-999.0,-999.0,-999,-99.99,,,-99.99,,2013-02-20 02:52:00,
2013-02-19 21:02:00,55.0,-99.9,30.18,North,-999,-999.0,-999.0,-999,-99.99,,,-99.99,,2013-02-20 03:02:00,
2013-02-19 21:12:00,54.0,-99.9,30.18,North,-999,-999.0,-999.0,-999,-99.99,,,-99.99,,2013-02-20 03:12:00,
2013-02-19 21:22:00,54.0,-99.9,30.18,North,-999,-999.0,-999.0,-999,-99.99,,,-99.99,,2013-02-20 03:22:00,
2013-02-19 21:32:00,54.0,-99.9,30.18,North,-999,-999.0,-999.0,-999,-99.99,,,-99.99,,2013-02-20 03:32:00,
2013-02-19 21:42:00,54.0,-99.9,30.19,North,-999,-999.0,-999.0,-999,-99.99,,,-99.99,,2013-02-20 03:42:00,
2013-02-19 21:52:00,53.0,-99.9,30.19,North,-999,-999.0,-999.0,-999,-99.99,,,-99.99,,2013-02-20 03:52:00,
2013-02-19 22:02:00,53.0,-99.9,30.19,North,-999,-999.0,-999.0,-999,-99.99,,,-99.99,,2013-02-20 04:02:00,
2013-02-19 22:11:00,53.0,-99.9,30.19,North,-999,-999.0,-999.0,-999,-99.99,,,-99.99,,2013-02-20 04:11:00,
2013-02-19 22:22:00,53.0,-99.9,30.19,North,-999,-999.0,-999.0,-999,-99.99,,,-99.99,,2013-02-20 04:22:00,
2013-02-19 22:32:00,52.0,-99.9,30.19,North,-999,-999.0,-999.0,-999,-99.99,,,-99.99,,2013-02-20 04:32:00,
2013-02-19 22:42:00,51.0,-99.9,30.19,North,-999,-999.0,-999.0,-999,-99.99,,,-99.99,,2013-02-20 04:42:00,
2013-02-19 22:52:00,51.0,-99.9,30.20,North,-999,-999.0,-999.0,-999,-99.99,,,-99.99,,2013-02-20 04:52:00,
2013-02-19 23:02:00,51.0,-99.9,30.19,North,-999,-999.0,-999.0,-999,-99.99,,,-99.99,,2013-02-20 05:02:00,
2013-02-19 23:12:00,51.0,-99.9,30.20,North,-999,-999.0,-999.0,-999,-99.99,,,-99.99,,2013-02-20 05:12:00,
2013-02-19 23:22:00,50.0,-99.9,30.20,North,-999,-999.0,-999.0,-999,-99.99,,,-99.99,,2013-02-20 05:22:00,
2013-02-19 23:32:00,50.0,-99.9,30.20,North,-999,-999.0,-999.0,-999,-99.99,,,-99.99,,2013-02-20 05:32:00,
2013-02-19 23:43:00,50.0,-99.9,30.19,North,-999,-999.0,-999.0,-999,-99.99,,,-99.99,,2013-02-20 05:43:00,
2013-02-19 23:52:00,49.0,-99.9,30.19,North,-999,-999.0,-999.0,-999,-99.99,,,-99.99,,2013-02-20 05:52:00,